Location: Bun Machan
(52.1403°N, 7.3744°W)
Time: 00:40:39
(UTC+00:00)

IRS-P3 - Visible Passes

Search period start: 24 October 2020 00:00
Search period end: 03 November 2020 00:00
Orbit: 813 x 819 km, 98.9° (Epoch: 23 October)

Date Brightness Start Highest point End Pass type
(mag) Time Alt. Az. Time Alt. Az. Time Alt. Az.
24 Oct 5.8 03:05:32 10° NNE 03:08:09 29° NNE 03:08:09 29° NNE visible
24 Oct 5.4 04:46:04 10° N 04:49:25 25° NW 04:49:25 25° NW visible
25 Oct 6.2 02:43:50 10° NNE 02:45:56 22° NE 02:45:56 22° NE visible
25 Oct 5.2 04:23:58 10° N 04:27:12 30° NNW 04:27:12 30° NNW visible
26 Oct 6.6 02:22:15 10° NE 02:23:42 17° NE 02:23:42 17° NE visible
26 Oct 5.3 04:01:58 10° N 04:04:59 32° N 04:04:59 32° N visible
26 Oct 6.0 05:43:55 10° NNW 05:46:03 12° NW 05:46:15 12° NW visible
27 Oct 7.0 02:00:55 10° NE 02:01:29 12° NE 02:01:29 12° NE visible
27 Oct 5.5 03:40:03 10° NNE 03:42:45 31° N 03:42:45 31° N visible
27 Oct 5.8 05:21:16 10° NNW 05:24:02 17° NW 05:24:02 17° NW visible
28 Oct 5.9 03:18:11 10° NNE 03:20:31 27° NNE 03:20:31 27° NNE visible
28 Oct 5.6 04:58:57 10° N 05:01:48 21° NW 05:01:48 21° NW visible
29 Oct 6.2 02:56:25 10° NNE 02:58:19 22° NNE 02:58:19 22° NNE visible
29 Oct 5.5 04:36:47 10° N 04:39:35 25° NNW 04:39:35 25° NNW visible
30 Oct 6.6 02:34:46 10° NNE 02:36:05 17° NE 02:36:05 17° NE visible
30 Oct 5.5 04:14:44 10° N 04:17:21 27° NNW 04:17:21 27° NNW visible
30 Oct 6.1 05:57:38 10° NNW 05:58:30 10° NW 05:58:38 10° NW visible
31 Oct 6.9 02:13:17 10° NE 02:13:52 12° NE 02:13:52 12° NE visible
31 Oct 5.7 03:52:46 10° N 03:55:08 27° N 03:55:08 27° N visible
31 Oct 5.9 05:34:20 10° NNW 05:36:24 14° NW 05:36:24 14° NW visible
01 Nov 5.9 03:30:52 10° NNE 03:32:55 24° NNE 03:32:55 24° NNE visible
01 Nov 5.8 05:11:52 10° N 05:14:11 18° NNW 05:14:11 18° NNW visible
02 Nov 6.3 03:09:03 10° NNE 03:10:42 20° NNE 03:10:42 20° NNE visible
02 Nov 5.7 04:49:38 10° N 04:51:58 21° NNW 04:51:58 21° NNW visible
